This demonstration page uses our WeatherBlox Daily Observations layout. Learn more.

Left ArrowRight Arrow

Hourly Observations for January 16, 2017

Temp ( °F °C ) Dew Point ( °F °C ) Humidity (%) Winds ( mph kmh ) Pressure ( in mb ) Visibility ( mi km ) Precip ( " mm )
12:39 am 00:39 Mostly Clear with Mist and Fog 37 2.8 36 2.2 96 96 Calm 30.18 1022 3 4 0.00 0.00
12:42 am 00:42 Partly Cloudy with Mist and Fog 37 3 36 2 93 93 Calm 30.18 1022 1 2 0.00 0.00
12:44 am 00:44 Mostly Cloudy with Mist and Fog 37 3 36 2 93 93 Calm 30.18 1022 1 1 0.00 0.00
12:53 am 00:53 Mostly Cloudy with Fog 36 2.2 35 1.7 97 97 Calm 30.17 1022 1 1 0.00 0.00
1:04 am 01:04 Mostly Cloudy with Fog 36 2 36 2 100 100 Calm 30.18 1022 0 0 0.00 0.00
1:53 am 01:53 Mostly Clear with Fog 33 0.6 33 0.6 100 100 Calm 30.17 1022 0 0 0.00 0.00
2:13 am 02:13 Mostly Clear with Mist and Fog 34 1.1 33 0.6 97 97 Calm 30.21 1023 1 2 0.00 0.00
2:17 am 02:17 Mostly Clear with Mist and Fog 33 0.6 33 0.6 100 100 Calm 30.21 1023 3 4 0.00 0.00
2:24 am 02:24 Cloudy with Mist and Fog 34 1 34 1 100 100 Calm 30.21 1023 3 5 0.00 0.00
2:43 am 02:43 Partly Cloudy with Mist and Fog 33 0.6 33 0.6 100 100 N 5 7 30.18 1022 5 8 0.00 0.00
2:53 am 02:53 Mostly Clear with Mist and Fog 32 0 32 0 100 100 E 5 7 30.16 1022 2 3 0.00 0.00
2:56 am 02:56 Mostly Cloudy with Mist and Fog 32 0 30 -1 93 93 E 3 6 30.21 1023 1 2 0.00 0.00
3:04 am 03:04 Mostly Clear with Mist and Fog 32 0 32 0 100 100 Calm 30.18 1022 2 2 0.00 0.00
3:12 am 03:12 Mostly Clear with Mist and Fog 32 0 32 0 100 100 Calm 30.18 1022 3 5 0.00 0.00
3:53 am 03:53 Clear with Mist and Fog 32 0 32 0 100 100 Calm 30.16 1022 5 8 0.00 0.00
4:53 am 04:53 Clear 30 -1.1 29 -1.7 96 96 WSW 3 6 30.15 1021 8 13 0.00 0.00
5:53 am 05:53 Clear 31 -0.6 29 -1.7 92 92 Calm 30.15 1021 8 13 0.00 0.00
6:53 am 06:53 Clear 31 -0.6 29 -1.7 92 92 Calm 30.16 1021 9 14 0.00 0.00
7:53 am 07:53 Sunny 33 0.6 32 0 96 96 NNW 3 6 30.16 1021 10 16 0.00 0.00
8:53 am 08:53 Sunny 35 1.7 33 0.6 93 93 Calm 30.17 1022 10 16 0.00 0.00
9:53 am 09:53 Sunny 50 10 37 2.8 61 61 N 9 15 30.17 1022 10 16 0.00 0.00
10:53 am 10:53 Sunny 59 15 28 -2.2 31 31 NNE 12 19 30.16 1022 10 16 0.00 0.00
11:53 am 11:53 Sunny 61 16.1 28 -2.2 29 29 NNE 12 19 30.14 1021 10 16 0.00 0.00
12:53 pm 12:53 Sunny 63 17.2 26 -3.3 25 25 NNE 8 13 30.10 1019 10 16 0.00 0.00
1:53 pm 13:53 Sunny 64 17.8 27 -2.8 25 25 NNE 8 13 30.07 1018 10 16 0.00 0.00
2:53 pm 14:53 Sunny 66 18.9 25 -3.9 21 21 N 3 6 30.06 1018 10 16 0.00 0.00
3:53 pm 15:53 Sunny 66 18.9 24 -4.4 20 20 Calm 30.06 1018 10 16 0.00 0.00
4:53 pm 16:53 Sunny 54 12.2 44 6.7 69 69 S 9 15 30.07 1018 10 16 0.00 0.00
5:53 pm 17:53 Clear 48 8.9 41 5 77 77 SSE 8 13 30.09 1019 10 16 0.00 0.00
6:53 pm 18:53 Clear 46 7.8 40 4.4 79 79 SSW 6 9 30.10 1019 10 16 0.00 0.00
7:53 pm 19:53 Clear 43 6.1 38 3.3 82 82 SW 3 6 30.11 1020 10 16 0.00 0.00
8:53 pm 20:53 Clear 40 4.4 37 2.8 89 89 Calm 30.13 1020 7 11 0.00 0.00
9:53 pm 21:53 Clear 40 4.4 37 2.8 89 89 N 3 6 30.13 1020 7 11 0.00 0.00
10:53 pm 22:53 Clear with Mist and Fog 38 3.3 36 2.2 93 93 Calm 30.13 1020 6 10 0.00 0.00
11:39 pm 23:39 Mostly Cloudy with Mist and Fog 37 2.8 35 1.7 93 93 Calm 30.15 1021 6 10 0.00 0.00
11:53 pm 23:53 Cloudy with Mist and Fog 36 2.2 35 1.7 97 97 Calm 30.13 1020 6 10 0.00 0.00

Powered by AerisWeather